Lafayette, IN

12:59 PM EDT on September 27, 2016 (GMT -0400)
Purdue Univ

Weather History for KLAF - January, 2013

Change the Weather History Date:

Thursday, January 10, 2013

  Actual Average Record
Temperature  
Mean Temperature 34 °F 26 °F  
Max Temperature 45 °F 34 °F 59 °F (1975)
Min Temperature 23 °F 19 °F -17 °F (1982)
Degree Days  
Heating Degree Days 31 39  
Month to date heating degree days 392 386  
Since 1 July heating degree days 2587 2561  
Cooling Degree Days 0 0  
Month to date cooling degree days 0 0  
Year to date cooling degree days 0 0  
Moisture  
Dew Point 30 °F    
Average Humidity 72    
Maximum Humidity 88    
Minimum Humidity 55    
Precipitation  
Precipitation 0.46 in 0.06 in 1.09 in (1975)
Month to date precipitation 0.46 0.65  
Year to date precipitation 0.46 0.65  
Sea Level Pressure  
Sea Level Pressure 30.30 in    
Wind  
Wind Speed 9 mph (ESE)    
Max Wind Speed 16 mph    
Max Gust Speed 22 mph    
Visibility 8 miles    
Events Rain    
T = Trace of Precipitation, MM = Missing Value Source: NWS Daily Summary

Daily Weather History Graph

Daily Weather History Graph

Search for Another Location

Airport or City:

Trip Planner

Search our weather history database for the weather conditions in past years. The results will help you decide how hot, cold, wet, or windy it might be!

Date:

Astronomy

Jan. 10, 2013 Rise Set
Actual Time 8:10 AM EST 5:40 PM EST
Civil Twilight 7:40 AM EST 6:11 PM EST
Nautical Twilight 7:06 AM EST 6:44 PM EST
Astronomical Twilight 6:33 AM EST 7:17 PM EST
Moon 6:49 AM EST (1/10) 4:48 PM EST (1/10)
Length of Visible Light 10h 30m
Length of Day
9h 30m
Waning Crescent, 2% of the Moon is Illuminated
Jan 10
Waning Crescent
Jan 11
New
Jan 18
First Quarter
Jan 26
Full
Feb 3
Last Quarter

Hourly Weather History & Observations

Time (EST) Temp. Windchill Dew Point Humidity Pressure Visibility Wind Dir Wind Speed Gust Speed Precip Events Conditions
12:54 AM 26.1 °F - 21.0 °F 81% 30.53 in 10.0 mi Calm Calm - N/A   Clear
1:54 AM 25.0 °F 19.3 °F 21.0 °F 85% 30.52 in 10.0 mi NE 4.6 mph - N/A   Clear
2:54 AM 28.9 °F 25.2 °F 24.1 °F 82% 30.51 in 10.0 mi ENE 3.5 mph - N/A   Clear
3:54 AM 26.1 °F - 21.9 °F 84% 30.52 in 10.0 mi Calm Calm - N/A   Clear
4:54 AM 27.0 °F - 21.9 °F 81% 30.51 in 10.0 mi Calm Calm - N/A   Clear
5:54 AM 27.0 °F 23.0 °F 21.9 °F 81% 30.50 in 10.0 mi ENE 3.5 mph - N/A   Clear
6:54 AM 26.1 °F 21.9 °F 23.0 °F 88% 30.49 in 10.0 mi East 3.5 mph - N/A   Clear
7:54 AM 30.0 °F 22.4 °F 23.0 °F 75% 30.48 in 10.0 mi East 8.1 mph - N/A   Clear
8:54 AM 30.9 °F 23.5 °F 24.1 °F 76% 30.47 in 10.0 mi East 8.1 mph - N/A   Clear
9:54 AM 34.0 °F 26.0 °F 25.0 °F 70% 30.45 in 10.0 mi East 10.4 mph - N/A   Clear
10:54 AM 37.0 °F 29.8 °F 26.1 °F 65% 30.43 in 10.0 mi East 10.4 mph - N/A   Clear
11:54 AM 39.0 °F 31.4 °F 27.0 °F 62% 30.40 in 10.0 mi East 12.7 mph - N/A   Clear
12:54 PM 41.0 °F 34.3 °F 27.0 °F 57% 30.35 in 10.0 mi ESE 11.5 mph - N/A   Clear
1:54 PM 39.9 °F 32.1 °F 28.0 °F 63% 30.30 in 10.0 mi East 13.8 mph - N/A   Overcast
2:54 PM 41.0 °F 34.3 °F 28.0 °F 60% 30.26 in 10.0 mi ESE 11.5 mph - N/A   Overcast
3:54 PM 39.0 °F 31.0 °F 30.0 °F 70% 30.25 in 10.0 mi ESE 13.8 mph - 0.00 in Rain Light Rain
4:54 PM 37.9 °F 29.2 °F 33.1 °F 83% 30.22 in 4.0 mi ESE 15.0 mph - 0.06 in Rain Rain
5:46 PM 37.4 °F 28.9 °F 35.6 °F 93% 30.18 in 3.0 mi ESE 13.8 mph - 0.15 in   Overcast
5:54 PM 37.0 °F 29.8 °F 35.1 °F 93% 30.20 in 3.0 mi ESE 10.4 mph - 0.16 in   Overcast
6:54 PM 37.9 °F 30.5 °F 37.0 °F 97% 30.16 in 5.0 mi ESE 11.5 mph - 0.12 in Rain Light Rain
7:18 PM 37.4 °F 29.8 °F 37.4 °F 100% 30.12 in 5.0 mi ESE 11.5 mph - 0.06 in Rain Light Rain
7:54 PM 39.0 °F 32.3 °F 37.0 °F 93% 30.13 in 7.0 mi ESE 10.4 mph - 0.07 in   Overcast
8:54 PM 39.0 °F 33.4 °F 37.9 °F 96% 30.09 in 5.0 mi ESE 8.1 mph - 0.02 in Rain Light Rain
9:54 PM 41.0 °F 35.2 °F 39.0 °F 93% 30.06 in 6.0 mi ESE 9.2 mph - 0.00 in Rain Light Rain
10:54 PM 43.0 °F 38.8 °F 41.0 °F 93% 30.03 in 7.0 mi SE 6.9 mph - 0.03 in   Overcast
11:50 PM 44.6 °F 40.2 °F 42.8 °F 93% 30.00 in 6.0 mi SSE 8.1 mph - 0.00 in   Overcast
11:54 PM 45.0 °F 40.6 °F 43.0 °F 93% 30.01 in 6.0 mi SSE 8.1 mph - 0.00 in   Overcast